Weather History for Huntingburg, IN

Change the Weather History Date:

Thursday, January 31, 2013

  Actual Average Record
Temperature  
Mean Temperature 25 °F -  
Max Temperature 35 °F 40 °F 62 °F (2002)
Min Temperature 17 °F 25 °F -7 °F (2004)
Degree Days  
Heating Degree Days 40    
Moisture  
Dew Point 18 °F    
Average Humidity 64    
Maximum Humidity 86    
Minimum Humidity 55    
Precipitation  
Precipitation 0.00 in - - ()
Sea Level Pressure  
Sea Level Pressure 29.98 in    
Wind  
Wind Speed 21 mph (West)    
Max Wind Speed 30 mph    
Max Gust Speed 37 mph    
Visibility 10 miles    
Events      
Averages and records for this station are not official NWS values.
T = Trace of Precipitation, MM = Missing Value Source: NWS Daily Summary

Daily Weather History Graph

Daily Weather History Graph

Search for Another Location

Airport:

Trip Planner

Search our weather history database for the weather conditions in past years. The results will help you decide how hot, cold, wet, or windy it might be!

Date:

Astronomy

Jan. 31, 2013 Rise Set
Actual Time 7:53 AM EST 6:09 PM EST
Civil Twilight 7:25 AM EST 6:37 PM EST
Nautical Twilight 6:53 AM EST 7:09 PM EST
Astronomical Twilight 6:22 AM EST 7:40 PM EST
Moon 11:06 PM EST (1/31) 9:57 AM EST (1/31)
Length of Visible Light 11h 12m
Length of Day
10h 16m
Waning Gibbous, 80% of the Moon is Illuminated
Jan 31
Waning Gibbous
Feb 3
Last Quarter
Feb 10
New
Feb 17
First Quarter
Feb 25
Full

Hourly Weather History & Observations

Time (EST) Temp. Windchill Dew Point Humidity Pressure Visibility Wind Dir Wind Speed Gust Speed Precip Events Conditions
12:15 AM 30.2 °F 16.5 °F 19.4 °F 64% 29.82 in 10.0 mi WNW 24.2 mph 31.1 mph N/A   Overcast
12:35 AM 30.2 °F 15.7 °F 19.4 °F 64% 29.83 in 10.0 mi WNW 27.6 mph 36.8 mph N/A   Overcast
12:55 AM 30.2 °F 17.1 °F 17.6 °F 60% 29.84 in 10.0 mi West 21.9 mph 29.9 mph N/A   Overcast
1:15 AM 30.2 °F 17.4 °F 19.4 °F 64% 29.85 in 10.0 mi West 20.7 mph 25.3 mph N/A   Overcast
1:35 AM 30.2 °F 16.5 °F 19.4 °F 64% 29.86 in 10.0 mi West 24.2 mph 32.2 mph N/A   Overcast
1:55 AM 30.2 °F 15.2 °F 17.6 °F 60% 29.87 in 10.0 mi West 29.9 mph 36.8 mph N/A   Overcast
2:15 AM 30.2 °F 17.4 °F 17.6 °F 60% 29.88 in 10.0 mi West 20.7 mph 28.8 mph N/A   Overcast
2:35 AM 30.2 °F 18.1 °F 17.6 °F 60% 29.88 in 10.0 mi West 18.4 mph 25.3 mph N/A   Overcast
2:55 AM 30.2 °F 17.4 °F 19.4 °F 64% 29.89 in 10.0 mi West 20.7 mph 25.3 mph N/A   Overcast
3:15 AM 30.2 °F 16.2 °F 19.4 °F 64% 29.89 in 10.0 mi West 25.3 mph 34.5 mph N/A   Overcast
3:35 AM 28.4 °F 14.7 °F 17.6 °F 64% 29.90 in 10.0 mi West 21.9 mph 28.8 mph N/A   Overcast
4:15 AM 28.4 °F 13.5 °F 17.6 °F 64% 29.89 in 10.0 mi West 26.5 mph 33.4 mph N/A   Overcast
4:35 AM 28.4 °F 13.5 °F 17.6 °F 64% 29.90 in 10.0 mi West 26.5 mph 34.5 mph N/A   Overcast
4:55 AM 28.4 °F 12.7 °F 17.6 °F 64% 29.91 in 10.0 mi West 29.9 mph 34.5 mph N/A   Overcast
5:15 AM 28.4 °F 13.5 °F 15.8 °F 59% 29.91 in 10.0 mi West 26.5 mph 34.5 mph N/A   Overcast
5:35 AM 28.4 °F 14.1 °F 15.8 °F 59% 29.92 in 10.0 mi West 24.2 mph 31.1 mph N/A   Overcast
5:55 AM 28.4 °F 15.1 °F 15.8 °F 59% 29.93 in 10.0 mi West 20.7 mph - N/A   Overcast
6:15 AM 28.4 °F 15.4 °F 17.6 °F 64% 29.93 in 10.0 mi West 19.6 mph 25.3 mph N/A   Overcast
6:35 AM 28.4 °F 16.2 °F 17.6 °F 64% 29.94 in 10.0 mi West 17.3 mph 20.7 mph N/A   Overcast
6:55 AM 28.4 °F 14.7 °F 17.6 °F 64% 29.95 in 10.0 mi West 21.9 mph 27.6 mph N/A   Mostly Cloudy
7:15 AM 26.6 °F 13.1 °F 17.6 °F 69% 29.95 in 10.0 mi West 19.6 mph - N/A   Mostly Cloudy
7:55 AM 26.6 °F 14.3 °F 15.8 °F 64% 29.96 in 10.0 mi West 16.1 mph 26.5 mph N/A   Overcast
8:15 AM 28.4 °F 16.2 °F 15.8 °F 59% 29.97 in 10.0 mi West 17.3 mph - N/A   Overcast
8:35 AM 28.4 °F 17.5 °F 15.8 °F 59% 29.98 in 10.0 mi West 13.8 mph - N/A   Mostly Cloudy
8:55 AM 28.4 °F 16.6 °F 17.6 °F 64% 29.99 in 10.0 mi West 16.1 mph 20.7 mph N/A   Overcast
9:15 AM 28.4 °F 17.0 °F 17.6 °F 64% 30.00 in 10.0 mi WSW 15.0 mph - N/A   Overcast
9:35 AM 28.4 °F 17.0 °F 17.6 °F 64% 30.00 in 10.0 mi WSW 15.0 mph 20.7 mph N/A   Mostly Cloudy
9:55 AM 28.4 °F 18.0 °F 17.6 °F 64% 30.01 in 10.0 mi WSW 12.7 mph - N/A   Scattered Clouds
10:35 AM 28.4 °F 18.5 °F 19.4 °F 69% 30.02 in 9.0 mi SW 11.5 mph - N/A   Mostly Cloudy
10:55 AM 28.4 °F 18.0 °F 21.2 °F 74% 30.02 in 10.0 mi SW 12.7 mph 18.4 mph N/A   Mostly Cloudy
11:15 AM 30.2 °F 18.5 °F 19.4 °F 64% 30.02 in 10.0 mi WSW 17.3 mph - N/A   Mostly Cloudy
11:35 AM 30.2 °F 17.1 °F 17.6 °F 60% 30.04 in 10.0 mi West 21.9 mph 25.3 mph N/A   Overcast
11:55 AM 30.2 °F 18.5 °F 17.6 °F 60% 30.04 in 10.0 mi WSW 17.3 mph 26.5 mph N/A   Overcast
12:15 PM 30.2 °F 18.5 °F 17.6 °F 60% 30.03 in 10.0 mi WSW 17.3 mph 26.5 mph N/A   Overcast
12:55 PM 32.0 °F 19.5 °F 17.6 °F 55% 30.02 in 10.0 mi West 21.9 mph 26.5 mph N/A   Overcast
1:15 PM 32.0 °F 18.9 °F 19.4 °F 60% 30.02 in 10.0 mi WSW 24.2 mph 27.6 mph N/A   Overcast
1:35 PM 32.0 °F 19.5 °F 19.4 °F 60% 30.01 in 10.0 mi West 21.9 mph 27.6 mph N/A   Overcast
1:55 PM 33.8 °F 22.2 °F 19.4 °F 56% 30.00 in 10.0 mi WSW 20.7 mph 26.5 mph N/A   Mostly Cloudy
2:15 PM 33.8 °F 23.2 °F 19.4 °F 56% 30.00 in 10.0 mi WSW 17.3 mph 24.2 mph N/A   Overcast
2:35 PM 33.8 °F 22.8 °F 21.2 °F 60% 29.99 in 10.0 mi WSW 18.4 mph 24.2 mph N/A   Mostly Cloudy
3:15 PM 33.8 °F 22.8 °F 21.2 °F 60% 29.98 in 10.0 mi West 18.4 mph 23.0 mph N/A   Overcast
3:35 PM 33.8 °F 22.5 °F 19.4 °F 56% 29.99 in 10.0 mi WSW 19.6 mph 25.3 mph N/A   Overcast
3:55 PM 33.8 °F 21.3 °F 19.4 °F 56% 29.98 in 10.0 mi West 24.2 mph 29.9 mph N/A   Overcast
4:15 PM 33.8 °F 23.2 °F 19.4 °F 56% 29.99 in 10.0 mi West 17.3 mph 31.1 mph N/A   Mostly Cloudy
4:35 PM 33.8 °F 22.8 °F 21.2 °F 60% 29.99 in 10.0 mi West 18.4 mph 25.3 mph N/A   Mostly Cloudy
4:55 PM 33.8 °F 23.9 °F 21.2 °F 60% 29.99 in 10.0 mi West 15.0 mph - N/A   Mostly Cloudy
5:15 PM 33.8 °F 23.2 °F 21.2 °F 60% 29.99 in 10.0 mi West 17.3 mph 24.2 mph N/A   Mostly Cloudy
5:35 PM 33.8 °F 22.8 °F 21.2 °F 60% 30.00 in 10.0 mi West 18.4 mph 23.0 mph N/A   Mostly Cloudy
5:55 PM 33.8 °F 21.9 °F 21.2 °F 60% 30.00 in 10.0 mi West 21.9 mph 27.6 mph N/A   Scattered Clouds
6:15 PM 32.0 °F 20.8 °F 23.0 °F 69% 30.00 in 10.0 mi West 17.3 mph - N/A   Scattered Clouds
6:35 PM 30.2 °F 18.9 °F 24.8 °F 80% 30.00 in 5.0 mi West 16.1 mph - N/A   Overcast
7:15 PM 30.2 °F 19.8 °F 26.6 °F 86% 30.01 in 2.0 mi WSW 13.8 mph - N/A   Overcast
7:35 PM 30.2 °F 19.3 °F 26.6 °F 86% 30.01 in 3.0 mi West 15.0 mph 20.7 mph N/A   Overcast
8:15 PM 26.6 °F 12.0 °F 21.2 °F 80% 30.04 in 2.0 mi NW 23.0 mph 33.4 mph N/A   Overcast
9:15 PM 21.2 °F 5.6 °F 15.8 °F 80% 30.11 in 9.0 mi WNW 20.7 mph 33.4 mph N/A   Mostly Cloudy
9:35 PM 21.2 °F 6.8 °F 12.2 °F 68% 30.12 in 10.0 mi WNW 17.3 mph 24.2 mph N/A   Mostly Cloudy
9:55 PM 19.4 °F 1.4 °F 8.6 °F 63% 30.14 in 10.0 mi NW 26.5 mph 33.4 mph N/A   Mostly Cloudy
10:15 PM 19.4 °F 3.6 °F 8.6 °F 63% 30.16 in 10.0 mi NW 19.6 mph 31.1 mph N/A   Partly Cloudy
10:35 PM 17.6 °F 0.5 °F 8.6 °F 68% 30.18 in 10.0 mi NW 21.9 mph 27.6 mph N/A   Partly Cloudy
11:15 PM 17.6 °F 1.7 °F 8.6 °F 68% 30.20 in 9.0 mi NW 18.4 mph 21.9 mph N/A   Mostly Cloudy
11:35 PM 17.6 °F 0.5 °F 8.6 °F 68% 30.22 in 10.0 mi WNW 21.9 mph 27.6 mph N/A   Overcast